097  
ASUS44 KSHV 261910  
RWRSHV  
 
WEATHER ROUNDUP FOR THE FOUR STATE AREA  
NATIONAL WEATHER SERVICE SHREVEPORT LA  
200 PM CDT THU APR 26 2018  
 
NOTE: "FAIR" INDICATES FEW OR NO CLOUDS BELOW 12000 FEET  
WITH NO SIGNIFICANT WEATHER AND/OR S TO VISIBILITY
.  
 
!LAZ001-LAZ014-TXZ097-262000  
SHREVEPORT...MONROE...TEXARKANA RADIOS  
 
CITY SKY/WX TMP DP RH WIND PRES REMARKS
 
SHREVEPORT PTSUNNY 64 49 57 N9 29.98F  
MONROE CLOUDY 64 52 64 NW13 29.97F  
NATCHITOCHES N/A 66 51 58 N9 29.98F  
TEXARKANA CLOUDY 64 50 60 VRB3 29.98F  

 
 
!LAZ001-LAZ014-TXZ097-262000  
OTHER LOCATIONS...  
 
CITY SKY/WX TMP DP RH WIND PRES REMARKS
 
DOWNTOWN SHV N/A 66 49 54 N9 29.98F  
BOSSIER CITY PTSUNNY 63 49 59 N8 29.98F  
RUSTON CLOUDY 59 50 72 NW3 30.02S  
LITTLE ROCK PTSUNNY 64 50 60 NW16 29.94S  
EL DORADO N/A 63 53 70 NW8 29.97F  
JACKSON CLOUDY 60 52 74 NW12G17 29.91S  
NEW ORLEANS N/A 72 55 55 N9 29.90F  
HOUSTON N/A 73 48 41 N9G17 29.99F  
LUFKIN SUNNY 69 49 48 NW12G17 29.98F  
TYLER SUNNY 67 46 47 N10 29.99F  
DAL FT WORTH MOSUNNY 68 44 42 VRB3 29.99F  

 
 
!TXZ136-TXZ165-262000  
TYLER...LUFKIN RADIOS  
 
CITY SKY/WX TMP DP RH WIND PRES REMARKS
 
TYLER SUNNY 67 46 47 N10 29.99F  
GILMER MOCLDY 64 49 58 N7 29.99F  
LONGVIEW MOSUNNY 66 50 56 MISG 29.98F  
LUFKIN SUNNY 69 49 48 NW12G17 29.98F  

 
 
!TXZ136-TXZ165-262000  
OTHER LOCATIONS...  
 
CITY SKY/WX TMP DP RH WIND PRES REMARKS
 
NACOGDOCHES N/A 68 49 50 N7 29.99F  
BEAUMONT N/A 74 48 39 N7 N/A  
HOUSTON N/A 73 48 41 N9G17 29.99F  
COLLEGE STN SUNNY 71 47 42 VRB6 30.00F  
AUSTIN SUNNY 71 48 43 NE5 30.01F  
DAL FT WORTH MOSUNNY 68 44 42 VRB3 29.99F  
TEXARKANA CLOUDY 64 50 60 VRB3 29.98F  
SHREVEPORT PTSUNNY 64 49 57 N9 29.98F  
FORT POLK N/A 68 48 47 NW10 29.94F  
LAKE CHARLES N/A 73 47 39 NW12 29.94F  

 
 
 
CLICK HERE TO GO TO PREVIOUS BULLETINS.

The Nexlab LA Page
The Nexlab TX Page
The Nexlab AR Page
The Nexlab OK Page Main Text Page